Starlink 30556

operational
NORAD ID: 58031 Int'l Des: 2023-156 Owner: SPXS Country: US Constellation: starlink
LEOCIRCULAR

About Starlink 30556

Description loading...

Live Position

Loading 3D Globe...

Upcoming Passes

Altitude History

Altitude vs Time

uPlot chart will show altitude changes over time

Two-Line Element Set

1 58031U 23156D 25349.64905750 .00000452 00000-0 27400-4 0 9991
2 58031 53.1602 118.7542 0000944 71.3146 288.7957 15.30194854123296
Epoch: Dec 15, 2025 • Age: 29 hours

Current Status

Altitude 488.5 km
Velocity 7.62 km/s
Sub-Earth Point -38.87°S, 67.74°W
Launch Date Oct 9, 2023
Age 2.1 years
Type internet

Technical Details

Classification Payload
Mass 730.00 kg
Dry Mass 700.00 kg
Total Mass 730.00 kg
Length 0.30 m
Diameter 4.10 m
Span 29.00 m
Shape Box + pan
Manufacturer SPXS
Bus Type Starlink V2M
Phase Status In Orbit
Owner/State SPXS/US

Large Constellations

Loading constellations...